DW6099 Weather Reports


Display with metric or nautical units.
time (UTC)temp
F
wind
direction
speed
MPH
gust
MPH
rain 1hr
in
rain 24hr
in
rain mn
in
humidity
%
barometer
mb
20260507130108 53 292 0.0 0.0 0.00 0.00 0.00 90 1002.4
20260507124606 53 292 0.0 0.0 0.00 0.00 0.00 89 1002.4
20260507123059 53 292 0.0 0.0 0.00 0.00 0.00 89 1002.4
20260507121552 53 292 0.0 0.0 0.00 0.00 0.00 90 1002.4
20260507120051 53 292 0.0 0.0 0.00 0.00 0.00 91 1002.4
20260507114551 53 292 0.0 0.0 0.00 0.00 0.00 90 1002.4
20260507113050 53 292 0.0 0.0 0.00 0.00 0.00 89 1002.4
20260507111550 53 292 0.0 0.0 0.00 0.00 0.00 90 1002.4
20260507110049 53 292 0.0 0.0 0.00 0.00 0.00 90 1002.4
20260507104549 53 292 0.0 0.0 0.00 0.00 0.00 90 1002.4
20260507103047 53 292 0.0 0.0 0.00 0.00 0.00 91 1002.4
20260507101548 53 292 0.0 0.0 0.00 0.00 0.00 91 1002.4
20260507100046 53 292 0.0 0.0 0.00 0.00 0.00 91 1002.4
20260507094547 53 292 0.0 0.0 0.00 0.00 0.00 91 1002.4
20260507093045 53 292 0.0 0.0 0.00 0.00 0.00 90 1002.4
20260507091544 53 292 0.0 0.0 0.00 0.00 0.00 90 1002.4
20260507090044 53 292 0.0 0.0 0.00 0.00 0.00 90 1002.4
20260507084548 53 292 0.0 0.0 0.00 0.00 0.00 89 1002.4
20260507083048 53 292 0.0 0.0 0.00 0.00 0.00 89 1002.4
20260507081540 53 292 0.0 0.0 0.00 0.00 0.00 90 1002.4
20260507080050 53 292 0.0 0.0 0.00 0.00 0.00 89 1002.4
20260507074544 53 292 0.0 0.0 0.00 0.00 0.00 90 1002.4
20260507073038 53 292 0.0 0.0 0.00 0.00 0.00 87 1002.4
20260507071553 53 292 0.0 0.0 0.00 0.00 0.00 87 1002.4
20260507070036 52 292 0.0 0.0 0.00 0.00 0.00 87 1002.4
20260507064535 52 292 0.0 0.0 0.00 0.00 0.00 87 1002.4
20260507063038 51 292 0.0 0.0 0.00 0.00 0.00 88 1002.4
20260507061535 51 292 0.0 0.0 0.00 0.00 0.00 87 1002.4
20260507060033 52 292 0.0 0.0 0.00 0.00 0.00 87 1002.4
20260507054532 52 292 0.0 0.0 0.00 0.00 0.00 87 1002.4
20260507053032 52 292 0.0 0.0 0.00 0.00 0.00 86 1002.4
20260507051532 53 251 0.0 0.0 0.00 0.00 0.00 83 1002.4
20260507050032 54 251 0.0 0.0 0.00 0.00 0.00 82 1002.4
20260507044533 55 251 0.0 0.0 0.00 0.00 0.00 81 1002.4
20260507043036 55 251 0.0 0.0 0.00 0.00 0.00 81 1002.4
20260507041532 56 251 0.0 0.0 0.00 0.00 0.00 81 1002.4
20260507040029 56 251 0.0 5.0 0.00 0.00 0.00 80 1002.4
20260507034530 57 265 0.0 0.0 0.00 0.00 0.00 79 1002.4
20260507033029 57 265 0.0 0.0 0.00 0.00 0.00 78 1002.4
20260507031528 58 265 0.0 0.0 0.00 0.00 0.00 76 1002.4
20260507030031 59 265 0.0 0.0 0.00 0.00 0.00 74 1002.4
20260507024528 60 265 0.0 0.0 0.00 0.00 0.00 72 1002.4
20260507023029 61 265 0.0 3.0 0.00 0.00 0.00 72 1002.4
20260507021526 61 264 0.0 0.0 0.00 0.00 0.00 71 1002.4
20260507020028 62 273 0.0 1.0 0.00 0.00 0.00 70 1002.4
20260507014526 62 271 0.0 5.0 0.00 0.00 0.00 68 1002.4
20260507013034 63 327 0.0 0.0 0.00 0.00 0.00 68 1002.4
20260507011535 64 337 0.0 0.0 0.00 0.00 0.00 67 1002.4
20260507010025 65 339 0.0 3.0 0.00 0.00 0.00 66 1002.4
20260507004525 66 297 0.0 1.0 0.00 0.00 0.00 65 1002.4
20260507003023 67 295 0.0 3.0 0.00 0.00 0.00 64 1002.4
20260507001523 67 311 0.0 0.0 0.00 0.00 0.00 64 1002.4
20260507000023 67 337 0.0 4.0 0.00 0.00 0.00 63 1002.4
20260506234530 69 343 0.0 4.0 0.00 0.00 0.00 61 1002.4
20260506233021 71 290 0.0 8.0 0.00 0.00 0.00 58 1002.4
20260506231521 71 266 0.0 7.0 0.00 0.00 0.00 56 1002.4
20260506230019 71 264 2.0 10.0 0.00 0.00 0.00 57 1002.4
20260506224526 72 258 2.0 8.0 0.00 0.00 0.00 54 1002.4
20260506223018 72 264 5.0 9.0 0.00 0.00 0.00 54 1002.4
20260506221517 73 277 0.0 6.0 0.00 0.00 0.00 57 1002.4
20260506220016 73 192 3.0 8.0 0.00 0.00 0.00 55 1002.4
20260506214513 71 281 0.0 7.0 0.00 0.00 0.00 56 1002.4
20260506213019 71 263 3.0 8.0 0.00 0.00 0.00 54 1002.4
20260506211515 71 254 0.0 7.0 0.00 0.00 0.00 56 1002.4
20260506210010 70 254 0.0 9.0 0.00 0.00 0.00 60 1002.4
20260506204507 70 227 2.0 6.0 0.00 0.00 0.00 57 1002.4
20260506203004 69 265 1.0 8.0 0.00 0.00 0.00 59 1002.4
20260506201601 68 281 0.0 8.0 0.00 0.00 0.00 65 1002.4
20260506200059 67 263 2.0 9.0 0.00 0.00 0.00 64 1002.4
20260506194556 66 276 4.0 8.0 0.00 0.00 0.00 66 1002.4
20260506193055 65 268 1.0 10.0 0.00 0.00 0.00 69 1002.4
20260506191559 64 228 3.0 10.0 0.00 0.00 0.00 70 1002.4
20260506190057 64 269 3.0 11.0 0.00 0.00 0.00 70 1002.4
20260506184559 65 264 2.0 8.0 0.00 0.00 0.00 69 1002.4
20260506183050 64 178 6.0 13.0 0.00 0.00 0.00 70 1002.4
20260506181547 63 244 2.0 7.0 0.00 0.00 0.00 72 1002.4
20260506180046 62 194 1.0 6.0 0.00 0.00 0.00 76 1002.4
20260506174541 60 276 1.0 7.0 0.00 0.00 0.00 78 1002.4
20260506173050 59 198 2.0 7.0 0.00 0.00 0.00 79 1002.4
20260506171536 58 173 2.0 7.0 0.00 0.00 0.00 82 1002.4
20260506170033 58 259 2.0 5.0 0.00 0.00 0.00 82 1002.4
20260506164533 58 255 1.0 6.0 0.00 0.00 0.00 82 1002.4
20260506163052 57 200 1.0 6.0 0.00 0.00 0.00 82 1002.4
20260506161529 57 184 0.0 5.0 0.00 0.00 0.00 84 1002.4
20260506160026 56 196 0.0 0.0 0.00 0.00 0.00 87 1002.4
20260506154531 55 258 0.0 0.0 0.00 0.00 0.00 90 1002.4
20260506153025 54 259 0.0 0.0 0.00 0.00 0.00 90 1002.4
20260506151520 54 259 0.0 0.0 0.00 0.00 0.00 91 1002.4
20260506150019 54 259 0.0 5.0 0.00 0.00 0.00 91 1002.4
20260506144519 53 271 1.0 5.0 0.00 0.00 0.00 92 1002.4
20260506143017 53 111 0.0 0.0 0.00 0.00 0.00 93 1002.4
20260506141515 53 111 0.0 0.0 0.00 0.00 0.00 94 1002.4
20260506140020 53 111 0.0 0.0 0.00 0.00 0.00 94 1002.4
20260506134516 52 111 0.0 0.0 0.00 0.00 0.00 94 1002.4
20260506133013 52 111 0.0 0.0 0.00 0.00 0.00 94 1002.4
20260506131518 52 111 0.0 0.0 0.00 0.00 0.00 94 1002.4